Regional Weather Roundup
Issued by NWS Sterling, VA

Home | Current Version | Previous Version | Text Only | Print | Product List | Glossary Off
Versions: 1 2 3 4 5 6 7 8 9 10 11 12 13 14 15 16 17 18 19 20 21 22 23 24 25 26 27 28 29 30 31 32 33 34 35 36 37 38 39 40 41 42 43 44 45 46 47 48 49 50

000
ASUS41 KLWX 011310
RWRLWX

REGIONAL WEATHER ROUNDUP
NATIONAL WEATHER SERVICE BALTIMORE MD/WASHINGTON DC
900 AM EDT SAT AUG 01 2015

Note: "FAIR" indicates few or no clouds below 12,000 feet
with no significant weather and/or obstructions to visibility.
 TC=TEMPERATURE CELSIUS

 * =Non NWS site. Station does not report precipitation (e.g. rain,
    snow, etc.), thunder, or fog.

DCZ001-MDZ009-015-VAZ040>042-051-053>054-011400-
WASHINGTON METRO

CITY           SKY/WX    TMP DP  RH WIND       PRES   REMARKS
WASHINGTON NAT PTSUNNY   82  65  56 S5        29.90R
DULLES         MOSUNNY   76  65  68 CALM      29.90R
ANDREWS AFB    SUNNY     81  64  56 W7        29.89R
FT BELVOIR     SUNNY     77  69  76 CALM      29.89R
COLLEGE PARK*  CLOUDY    79  63  57 CALM      29.88S
LEESBURG*      MOSUNNY   77  68  73 S5        29.91S
MANASSAS*      MOSUNNY   73  68  83 CALM      29.90R
GAITHERSBURG*  MOSUNNY   73  64  73 CALM      29.94S

$$

MDZ006>007-011-014-011400-
BALTIMORE METRO

CITY           SKY/WX    TMP DP  RH WIND       PRES   REMARKS
BWI AIRPORT    PTSUNNY   77  64  64 W8        29.88R
MD SCIENCE CTR   N/A     81  60  48 MISG      29.88R
MARTIN STATE   MOSUNNY   81  64  57 W8        29.89R
ANNAPOLIS      SUNNY     80  62  54 W7        29.87R
FORT MEADE*    PTSUNNY   72  70  94 W3        29.91R

$$

MDZ012-015-019>023-011400-
MARYLAND EASTERN SHORE

CITY           SKY/WX    TMP DP  RH WIND       PRES   REMARKS
OCEAN CITY     SUNNY     82  66  58 SW9       29.89R
SALISBURY      SUNNY     80  68  66 W8        29.89R
BAY BRIDGE AP*   N/A     79  63  57 W5        29.88S
CAMBRIDGE*     SUNNY     79  68  69 SW6       29.88S
EASTON*        SUNNY     82  72  69 W5        29.92R

$$

MDZ017>025-011400-
SOUTHERN MARYLAND

CITY           SKY/WX    TMP DP  RH WIND       PRES   REMARKS
PATUXENT RIVER MOSUNNY   77  67  71 SW8       29.89R
ST INIGOES     SUNNY     78  66  66 SW6       29.89R
LEONARDTOWN*   SUNNY     77  66  69 CALM      29.91S

$$

MDZ003>005-011400-
NORTH CENTRAL MARYLAND

CITY           SKY/WX    TMP DP  RH WIND       PRES   REMARKS
FREDERICK*     SUNNY     75  68  78 VRB3      29.92R
HAGERSTOWN APT PTSUNNY   76  60  57 SW7       29.90R
WESTMINSTER*   MOSUNNY   73  63  68 SW5       29.91R

$$

MDZ501>502-011400-
WESTERN MARYLAND

CITY           SKY/WX    TMP DP  RH WIND       PRES   REMARKS
OAKLAND*       MOSUNNY   63 N/A N/A W6        30.02R
CUMBERLAND*    SUNNY     75  63  64 SE3       29.96S

$$

VAZ025>031-011400-
SHENANDOAH VALLEY

CITY           SKY/WX    TMP DP  RH WIND       PRES   REMARKS
WINCHESTER*    MOSUNNY   77  63  61 SW7       29.92S
FRONT ROYAL*   FAIR      72  63  73 S6        29.91S
LURAY*         FAIR      73  64  73 SW6       29.94S
NEW MARKET*    FAIR      71  63  77 CALM      29.93S
STAUNTON*      SUNNY     76  64  66 SW6       29.98R
WAYNESBORO*    FAIR      74  61  65 SW5       29.98R

$$

WVZ021-048>050-054>055-011400-
EASTERN WEST VIRGINIA PANHANDLE

CITY           SKY/WX    TMP DP  RH WIND       PRES   REMARKS
MARTINSBURG    SUNNY     75  63  66 S6        29.91R
PETERSBURG*    SUNNY    N/A N/A N/A CALM      29.96R

$$

VAZ036>039-050-011400-
CENTRAL FOOTHILLS

CITY           SKY/WX    TMP DP  RH WIND       PRES   REMARKS
CHARLOTTESVILL MOSUNNY   77  65  66 S5        29.92R
CULPEPER*      SUNNY     74  66  75 CALM      29.91S
ORANGE*        SUNNY     77  66  69 CALM      29.93R
GORDONSVILLE*  FAIR      75  66  73 SW5       29.92R
WARRENTON*     FAIR      75  68  77 SW5       29.90S

$$

VAZ055>057-011400-
NORTH AND CENTRAL PIEDMONT

CITY           SKY/WX    TMP DP  RH WIND       PRES   REMARKS
FREDERICKSBRG* SUNNY     78  68  71 CALM      29.89S
STAFFORD*      SUNNY     74  66  76 CALM      29.94S

$$

NCZ024-NYZ072-PAZ021-071-VAZ022-071-011400-
OTHER REGIONAL OBSERVATIONS

CITY           SKY/WX    TMP DP  RH WIND       PRES   REMARKS
NEW YORK CITY  SUNNY     79  60  52 VRB3      29.83S
PHILADELPHIA   MOSUNNY   80  61  52 W13       29.86R
PITTSBURGH     MOSUNNY   71  59  65 NW8       29.94R
ROANOKE        SUNNY     75  59  57 SW6       30.00R
RICHMOND       MOSUNNY   78  65  63 SW3       29.92R
RALEIGH        MOSUNNY   77  64  64 CALM      29.96S

$$

ANZ530>537-011400-
MARINE OBSERVATIONS

STATION/POSITION TIME  TEMP    WIND        PRES
                       AIR SEA DIR/SP/G
                 (UTC) (F)     (DEG/KT/KT) (MB)
THOMAS PT LIGHT  NOT AVBL
BALT KEY BRIDGE  1200   76     250/  6/  7 1011.1R
COVE POINT       1200   76     190/  5/  6 1012.4R
LEWISETTA        1200   76 83  250/  5/  7 1012.0R
SOLOMONS ISLAND  1200      83                N/A
PINEY POINT      1200          250/  4/  6   N/A

$$



USA.gov is the U.S. government's official web portal to all federal, state and local government web resources and services.